Zurück zum Katalog

NOVASAR 1

AktivWissenschaftSSO
NORAD 43619·PAYLOAD·🇬🇧 United Kingdom

Gestartet Sep 16, 2018 von Satish Dhawan Space Centre

Loading…

Nächste Überflüge (nächste 24 Stunden)

TLE

AktuellSource: Space-Track

Epoche: Sep 14, 2026, 14:22 UTC

1 43619U 18071B   26257.59870469  .00001066  00000-0  99077-4 0  9999
2 43619  97.4919 126.1887 0002220  90.7205 269.4272 14.96329006436304

Verfolge NOVASAR 1 in Echtzeit mit AllMySat

Download on the App Store